QPF
0.10 0.06 0.04 0.04 0.05 0.04 0.04 0.03 0.03 0.04 0.02 0.02 0.02 0.06 0.07 0.05 0.07 0.07 0.06 0.04 0.03 0.03 0.03 0.03 0.02 0.02 0.02 0.04 0.05 0.05 0.05 0.07 0.10 0.10 0.09 0.13 0.12 0.05
0.08 0.07 0.04 0.05 0.07 0.07 0.05 0.04 0.04 0.03 0.02 0.03 0.03 0.02 0.05 0.05 0.07 0.05 0.03 0.03 0.03 0.04 0.03 0.02 0.02 0.02 0.02 0.03 0.03 0.03 0.03 0.03 0.04 0.06 0.07 0.07 0.09 0.06
0.05 0.06 0.06 0.06 0.08 0.09 0.07 0.05 0.05 0.05 0.04 0.04 0.03 0.03 0.04 0.04 0.05 0.05 0.05 0.05 0.04 0.04 0.03 0.03 0.03 0.02 0.02 0.02 0.02 0.03 0.03 0.05 0.05 0.05 0.04 0.05 0.06 0.06
0.04 0.05 0.05 0.07 0.07 0.07 0.05 0.04 0.05 0.06 0.05 0.04 0.02 0.03 0.04 0.03 0.05 0.06 0.07 0.07 0.07 0.05 0.04 0.04 0.04 0.03 0.02 0.02 0.02 0.03 0.04 0.05 0.05 0.05 0.05 0.05 0.05 0.06
0.04 0.03 0.03 0.04 0.04 0.04 0.04 0.03 0.04 0.05 0.05 0.03 0.03 0.04 0.04 0.04 0.05 0.05 0.06 0.07 0.08 0.06 0.05 0.04 0.04 0.03 0.02 0.03 0.03 0.04 0.04 0.04 0.04 0.04 0.04 0.03 0.04 0.04
0.04 0.05 0.04 0.04 0.04 0.03 0.03 0.03 0.05 0.05 0.04 0.04 0.03 0.03 0.03 0.05 0.07 0.07 0.07 0.07 0.07 0.05 0.06 0.05 0.05 0.04 0.02 0.02 0.03 0.03 0.03 0.04 0.05 0.05 0.05 0.04 0.03 0.03
0.04 0.07 0.06 0.04 0.03 0.02 0.02 0.03 0.04 0.03 0.03 0.04 0.03 0.03 0.03 0.03 0.04 0.06 0.05 0.05 0.05 0.06 0.06 0.05 0.05 0.04 0.03 0.03 0.02 0.02 0.02 0.03 0.04 0.05 0.05 0.05 0.05 0.04
0.05 0.05 0.04 0.03 0.03 0.03 0.03 0.03 0.02 0.02 0.02 0.03 0.02 0.02 0.02 0.04 0.04 0.04 0.05 0.05 0.06 0.07 0.08 0.09 0.07 0.05 0.05 0.04 0.03 0.02 0.01 0.02 0.03 0.03 0.05 0.05 0.05 0.05
0.07 0.05 0.04 0.03 0.03 0.03 0.03 0.02 0.02 0.01 0.01 0.02 0.02 0.02 0.02 0.04 0.05 0.05 0.05 0.06 0.05 0.05 0.06 0.06 0.07 0.06 0.06 0.07 0.06 0.03 0.03 0.02 0.03 0.03 0.03 0.04 0.04 0.04
0.08 0.07 0.06 0.04 0.04 0.03 0.03 0.02 0.02 0.01 0.02 0.02 0.02 0.01 0.01 0.02 0.04 0.05 0.05 0.04 0.04 0.04 0.04 0.03 0.04 0.05 0.05 0.06 0.06 0.05 0.04 0.03 0.03 0.02 0.03 0.03 0.03 0.03
0.08 0.07 0.06 0.06 0.04 0.04 0.03 0.02 0.02 0.02 0.01 0.02 0.03 0.03 0.03 0.03 0.04 0.04 0.04 0.04 0.03 0.02 0.03 0.03 0.02 0.03 0.04 0.04 0.04 0.04 0.06 0.05 0.04 0.03 0.03 0.03 0.03 0.04
0.07 0.08 0.08 0.07 0.07 0.05 0.03 0.02 0.02 0.02 0.01 0.01 0.03 0.05 0.04 0.03 0.03 0.03 0.03 0.02 0.02 0.01 0.02 0.02 0.02 0.02 0.05 0.06 0.05 0.06 0.06 0.06 0.06 0.06 0.05 0.04 0.04 0.03
0.09 0.08 0.08 0.09 0.08 0.06 0.04 0.03 0.03 0.04 0.04 0.03 0.02 0.03 0.04 0.05 0.04 0.04 0.04 0.04 0.03 0.02 0.01 0.02 0.02 0.03 0.06 0.07 0.08 0.08 0.05 0.05 0.05 0.06 0.07 0.08 0.06 0.03
0.09 0.12 0.11 0.09 0.07 0.06 0.05 0.04 0.04 0.06 0.08 0.06 0.03 0.03 0.03 0.04 0.05 0.05 0.04 0.05 0.05 0.05 0.05 0.05 0.03 0.03 0.06 0.06 0.07 0.07 0.05 0.05 0.05 0.06 0.06 0.07 0.06 0.05
0.05 0.05 0.05 0.05 0.05 0.05 0.05 0.06 0.08 0.09 0.09 0.07 0.06 0.05 0.06 0.06 0.06 0.05 0.04 0.05 0.07 0.07 0.07 0.06 0.05 0.05 0.06 0.06 0.06 0.07 0.07 0.06 0.05 0.05 0.05 0.05 0.04 0.03
0.07 0.06 0.04 0.04 0.04 0.06 0.08 0.10 0.09 0.08 0.06 0.07 0.07 0.07 0.07 0.07 0.07 0.06 0.06 0.06 0.06 0.06 0.06 0.05 0.06 0.06 0.06 0.06 0.07 0.07 0.06 0.06 0.06 0.06 0.05 0.05 0.05 0.04
0.05 0.06 0.04 0.03 0.04 0.06 0.06 0.05 0.05 0.06 0.06 0.06 0.07 0.08 0.07 0.06 0.06 0.06 0.06 0.06 0.05 0.05 0.04 0.04 0.04 0.05 0.06 0.07 0.08 0.07 0.06 0.06 0.06 0.07 0.09 0.09 0.08 0.07
0.02 0.03 0.03 0.03 0.03 0.03 0.03 0.03 0.05 0.07 0.08 0.08 0.07 0.08 0.09 0.08 0.07 0.06 0.06 0.06 0.06 0.05 0.05 0.04 0.03 0.04 0.05 0.08 0.09 0.08 0.08 0.11 0.11 0.11 0.11 0.12 0.10 0.09
0.01 0.01 0.01 0.01 0.02 0.02 0.03 0.03 0.04 0.05 0.06 0.07 0.07 0.07 0.07 0.07 0.08 0.08 0.08 0.08 0.07 0.05 0.05 0.05 0.04 0.05 0.06 0.06 0.06 0.07 0.08 0.10 0.11 0.11 0.11 0.11 0.09 0.07
0.02 0.02 0.02 0.01 0.01 0.01 0.01 0.01 0.01 0.02 0.02 0.04 0.07 0.09 0.09 0.09 0.10 0.10 0.10 0.09 0.08 0.06 0.06 0.05 0.04 0.04 0.04 0.04 0.04 0.05 0.06 0.07 0.09 0.09 0.08 0.09 0.08 0.08
0.02 0.02 0.02 0.01 0.01 0.01 0.01 0.01 0.01 0.01 0.01 0.02 0.04 0.09 0.13 0.12 0.09 0.08 0.08 0.07 0.06 0.05 0.05 0.04 0.04 0.04 0.05 0.04 0.04 0.04 0.04 0.04 0.06 0.09 0.08 0.07 0.07 0.06
0.02 0.02 0.02 0.01 0.01 0.01 0.00 0.00 0.01 0.01 0.01 0.01 0.02 0.04 0.07 0.10 0.10 0.08 0.06 0.06 0.06 0.05 0.05 0.05 0.05 0.05 0.05 0.05 0.04 0.03 0.02 0.03 0.04 0.07 0.07 0.06 0.06 0.06
0.03 0.02 0.02 0.01 0.01 0.01 0.01 0.01 0.01 0.01 0.01 0.02 0.02 0.02 0.04 0.06 0.08 0.09 0.08 0.07 0.06 0.06 0.06 0.06 0.05 0.04 0.04 0.04 0.03 0.02 0.02 0.03 0.03 0.03 0.03 0.03 0.03 0.03
MSLP
1014.79 1014.74 1014.74 1014.81 1014.94 1015.11 1015.33 1015.55 1015.77 1015.95 1016.08 1016.14 1016.11 1015.98 1015.77 1015.48 1015.14 1014.77 1014.40 1014.06 1013.78 1013.56 1013.39 1013.26 1013.16 1013.04 1012.89 1012.70 1012.46 1012.18 1011.90 1011.61 1011.34 1011.11 1010.93 1010.78 1010.65 1010.52
1015.38 1015.32 1015.29 1015.30 1015.37 1015.49 1015.64 1015.82 1016.00 1016.16 1016.29 1016.36 1016.34 1016.25 1016.06 1015.78 1015.45 1015.07 1014.69 1014.34 1014.03 1013.79 1013.60 1013.47 1013.36 1013.25 1013.13 1012.96 1012.75 1012.51 1012.23 1011.95 1011.69 1011.45 1011.25 1011.08 1010.94 1010.81
1016.04 1015.98 1015.94 1015.93 1015.94 1016.01 1016.10 1016.22 1016.34 1016.47 1016.57 1016.63 1016.62 1016.53 1016.34 1016.07 1015.73 1015.34 1014.94 1014.55 1014.20 1013.92 1013.69 1013.53 1013.40 1013.29 1013.18 1013.03 1012.85 1012.62 1012.37 1012.11 1011.86 1011.63 1011.43 1011.27 1011.14 1011.01
1016.72 1016.69 1016.66 1016.63 1016.63 1016.65 1016.69 1016.75 1016.83 1016.91 1016.97 1017.00 1016.97 1016.87 1016.68 1016.40 1016.05 1015.64 1015.21 1014.78 1014.38 1014.05 1013.78 1013.57 1013.40 1013.27 1013.14 1012.99 1012.82 1012.61 1012.37 1012.13 1011.89 1011.67 1011.49 1011.34 1011.22 1011.12
1017.36 1017.38 1017.38 1017.38 1017.37 1017.36 1017.37 1017.38 1017.40 1017.43 1017.45 1017.44 1017.38 1017.26 1017.06 1016.77 1016.41 1015.99 1015.54 1015.08 1014.64 1014.26 1013.94 1013.67 1013.46 1013.29 1013.12 1012.95 1012.76 1012.54 1012.31 1012.07 1011.83 1011.63 1011.45 1011.32 1011.21 1011.12
1017.94 1018.01 1018.05 1018.08 1018.08 1018.07 1018.05 1018.02 1018.00 1017.97 1017.94 1017.89 1017.80 1017.66 1017.44 1017.16 1016.80 1016.38 1015.93 1015.46 1015.01 1014.59 1014.22 1013.92 1013.65 1013.42 1013.21 1013.00 1012.77 1012.53 1012.27 1012.01 1011.77 1011.55 1011.38 1011.24 1011.14 1011.06
1018.41 1018.53 1018.62 1018.68 1018.70 1018.69 1018.65 1018.59 1018.52 1018.44 1018.36 1018.27 1018.15 1018.00 1017.79 1017.52 1017.18 1016.79 1016.36 1015.91 1015.46 1015.03 1014.65 1014.30 1013.99 1013.71 1013.44 1013.17 1012.89 1012.60 1012.30 1012.01 1011.74 1011.50 1011.30 1011.15 1011.04 1010.95
1018.78 1018.93 1019.05 1019.14 1019.17 1019.16 1019.10 1019.01 1018.91 1018.79 1018.67 1018.54 1018.41 1018.25 1018.05 1017.81 1017.52 1017.17 1016.79 1016.38 1015.96 1015.55 1015.17 1014.80 1014.45 1014.12 1013.79 1013.46 1013.11 1012.76 1012.41 1012.07 1011.76 1011.48 1011.26 1011.07 1010.93 1010.81
1019.06 1019.22 1019.35 1019.44 1019.48 1019.46 1019.39 1019.28 1019.14 1018.99 1018.85 1018.70 1018.56 1018.40 1018.23 1018.03 1017.79 1017.51 1017.19 1016.84 1016.47 1016.10 1015.72 1015.34 1014.97 1014.59 1014.21 1013.81 1013.41 1012.99 1012.58 1012.18 1011.82 1011.49 1011.22 1010.99 1010.80 1010.63
1019.27 1019.42 1019.54 1019.63 1019.66 1019.63 1019.54 1019.41 1019.25 1019.09 1018.92 1018.77 1018.63 1018.50 1018.36 1018.20 1018.02 1017.80 1017.55 1017.26 1016.94 1016.60 1016.23 1015.86 1015.46 1015.05 1014.62 1014.17 1013.70 1013.22 1012.75 1012.29 1011.87 1011.50 1011.17 1010.89 1010.65 1010.42
1019.42 1019.55 1019.66 1019.72 1019.74 1019.70 1019.60 1019.46 1019.29 1019.12 1018.96 1018.82 1018.69 1018.58 1018.48 1018.36 1018.23 1018.06 1017.86 1017.61 1017.33 1017.01 1016.66 1016.28 1015.87 1015.43 1014.95 1014.45 1013.93 1013.40 1012.87 1012.36 1011.88 1011.46 1011.07 1010.74 1010.44 1010.15
1019.53 1019.63 1019.72 1019.77 1019.77 1019.72 1019.62 1019.48 1019.32 1019.17 1019.02 1018.89 1018.79 1018.71 1018.64 1018.55 1018.45 1018.31 1018.13 1017.90 1017.63 1017.32 1016.96 1016.56 1016.13 1015.66 1015.15 1014.61 1014.05 1013.47 1012.90 1012.34 1011.82 1011.34 1010.91 1010.53 1010.17 1009.83
1019.60 1019.68 1019.74 1019.78 1019.77 1019.72 1019.63 1019.51 1019.38 1019.25 1019.13 1019.04 1018.97 1018.91 1018.86 1018.79 1018.69 1018.55 1018.37 1018.13 1017.84 1017.50 1017.12 1016.70 1016.23 1015.73 1015.19 1014.62 1014.03 1013.42 1012.82 1012.22 1011.66 1011.14 1010.67 1010.24 1009.83 1009.44
1019.61 1019.68 1019.73 1019.76 1019.75 1019.71 1019.64 1019.55 1019.45 1019.37 1019.29 1019.24 1019.20 1019.17 1019.12 1019.05 1018.94 1018.78 1018.56 1018.28 1017.95 1017.56 1017.14 1016.67 1016.17 1015.64 1015.08 1014.49 1013.87 1013.25 1012.62 1012.01 1011.42 1010.87 1010.36 1009.88 1009.44 1009.01
1019.56 1019.62 1019.67 1019.70 1019.70 1019.67 1019.63 1019.58 1019.53 1019.50 1019.47 1019.46 1019.46 1019.45 1019.41 1019.32 1019.18 1018.97 1018.70 1018.36 1017.96 1017.51 1017.02 1016.51 1015.97 1015.41 1014.82 1014.22 1013.60 1012.97 1012.34 1011.71 1011.10 1010.53 1009.98 1009.48 1009.01 1008.55
1019.45 1019.51 1019.56 1019.59 1019.60 1019.60 1019.58 1019.58 1019.58 1019.60 1019.63 1019.66 1019.70 1019.70 1019.66 1019.55 1019.37 1019.11 1018.77 1018.35 1017.88 1017.36 1016.81 1016.24 1015.66 1015.07 1014.47 1013.86 1013.24 1012.61 1011.98 1011.35 1010.74 1010.15 1009.58 1009.06 1008.56 1008.08
1019.29 1019.35 1019.40 1019.43 1019.46 1019.47 1019.49 1019.53 1019.58 1019.64 1019.72 1019.80 1019.86 1019.88 1019.84 1019.71 1019.50 1019.18 1018.77 1018.28 1017.73 1017.14 1016.53 1015.91 1015.29 1014.67 1014.06 1013.45 1012.83 1012.21 1011.59 1010.97 1010.35 1009.75 1009.18 1008.63 1008.11 1007.62
1019.11 1019.17 1019.22 1019.25 1019.29 1019.32 1019.37 1019.43 1019.52 1019.64 1019.76 1019.87 1019.96 1019.99 1019.95 1019.80 1019.55 1019.19 1018.73 1018.18 1017.56 1016.91 1016.24 1015.57 1014.91 1014.27 1013.65 1013.03 1012.42 1011.81 1011.20 1010.58 1009.97 1009.37 1008.79 1008.23 1007.71 1007.21
1018.94 1019.00 1019.05 1019.09 1019.13 1019.18 1019.25 1019.34 1019.46 1019.61 1019.76 1019.90 1020.01 1020.05 1020.00 1019.84 1019.57 1019.17 1018.66 1018.07 1017.41 1016.70 1015.99 1015.28 1014.59 1013.93 1013.29 1012.67 1012.06 1011.45 1010.85 1010.24 1009.63 1009.04 1008.46 1007.90 1007.37 1006.86
1018.80 1018.87 1018.93 1018.98 1019.03 1019.10 1019.18 1019.30 1019.44 1019.60 1019.77 1019.93 1020.05 1020.09 1020.04 1019.88 1019.58 1019.17 1018.64 1018.02 1017.32 1016.59 1015.84 1015.10 1014.39 1013.70 1013.05 1012.42 1011.80 1011.19 1010.59 1009.99 1009.39 1008.80 1008.22 1007.67 1007.14 1006.63
1018.70 1018.79 1018.88 1018.95 1019.02 1019.11 1019.21 1019.34 1019.49 1019.66 1019.84 1020.00 1020.12 1020.16 1020.10 1019.93 1019.64 1019.21 1018.68 1018.05 1017.34 1016.60 1015.84 1015.09 1014.35 1013.65 1012.98 1012.33 1011.70 1011.09 1010.49 1009.88 1009.29 1008.70 1008.14 1007.59 1007.06 1006.56
1018.63 1018.77 1018.89 1019.00 1019.11 1019.22 1019.34 1019.48 1019.64 1019.81 1019.98 1020.13 1020.23 1020.26 1020.20 1020.03 1019.73 1019.32 1018.79 1018.18 1017.48 1016.75 1016.00 1015.25 1014.51 1013.80 1013.12 1012.46 1011.82 1011.19 1010.58 1009.98 1009.38 1008.81 1008.24 1007.70 1007.18 1006.69
1018.56 1018.77 1018.95 1019.11 1019.27 1019.41 1019.55 1019.71 1019.86 1020.02 1020.18 1020.31 1020.39 1020.40 1020.33 1020.15 1019.87 1019.47 1018.97 1018.39 1017.73 1017.03 1016.31 1015.58 1014.86 1014.16 1013.48 1012.81 1012.17 1011.53 1010.92 1010.31 1009.72 1009.14 1008.59 1008.05 1007.54 1007.05
Thickness
5747 5746 5744 5744 5742 5741 5738 5735 5727 5720 5722 5728 5730 5733 5733 5731 5730 5728 5726 5725 5723 5722 5720 5718 5717 5715 5714 5713 5711 5711 5710 5709 5708 5707 5706 5705 5704 5704
5745 5743 5742 5741 5740 5739 5737 5734 5731 5725 5720 5725 5727 5729 5729 5729 5727 5725 5724 5722 5720 5719 5717 5715 5713 5712 5711 5709 5708 5707 5706 5705 5704 5703 5702 5702 5700 5699
5742 5740 5738 5738 5736 5735 5733 5731 5728 5725 5719 5722 5724 5725 5724 5723 5722 5721 5720 5718 5716 5715 5713 5711 5710 5709 5707 5706 5705 5703 5702 5701 5700 5699 5698 5697 5696 5695
5738 5736 5734 5734 5731 5730 5728 5726 5724 5723 5718 5715 5717 5718 5718 5717 5716 5715 5715 5713 5711 5710 5708 5707 5706 5704 5702 5701 5700 5699 5697 5696 5695 5695 5694 5693 5692 5691
5735 5732 5731 5728 5726 5724 5723 5722 5720 5719 5716 5712 5711 5712 5712 5711 5709 5708 5708 5706 5706 5704 5703 5702 5700 5699 5697 5696 5695 5694 5693 5692 5691 5689 5688 5688 5687 5686
5732 5729 5727 5724 5722 5720 5719 5717 5715 5712 5710 5707 5706 5705 5704 5704 5702 5699 5697 5698 5697 5698 5697 5696 5694 5692 5692 5691 5690 5689 5688 5687 5686 5684 5683 5682 5681 5681
5727 5725 5723 5722 5720 5718 5716 5713 5710 5706 5703 5700 5698 5696 5696 5694 5692 5692 5689 5689 5689 5689 5688 5687 5686 5685 5685 5684 5683 5683 5682 5681 5680 5679 5678 5677 5676 5675
5722 5720 5719 5717 5715 5714 5712 5710 5707 5703 5698 5694 5692 5690 5689 5689 5687 5686 5682 5680 5678 5681 5679 5679 5679 5678 5678 5678 5678 5677 5677 5676 5675 5673 5672 5671 5670 5669
5717 5715 5714 5713 5710 5707 5706 5704 5702 5700 5697 5692 5688 5687 5685 5685 5682 5679 5677 5674 5673 5674 5672 5671 5672 5672 5673 5673 5672 5672 5671 5670 5669 5668 5666 5665 5664 5663
5712 5710 5707 5705 5704 5700 5699 5697 5695 5694 5692 5689 5686 5685 5684 5682 5679 5676 5672 5670 5669 5668 5667 5663 5665 5665 5668 5667 5667 5666 5666 5665 5663 5662 5661 5659 5658 5657
5707 5705 5702 5699 5697 5694 5690 5688 5687 5687 5687 5685 5683 5681 5679 5676 5673 5669 5665 5661 5659 5660 5660 5657 5657 5657 5658 5659 5660 5660 5660 5659 5658 5656 5655 5654 5652 5651
5700 5698 5695 5692 5689 5686 5682 5679 5677 5677 5677 5675 5674 5672 5670 5668 5666 5663 5660 5655 5652 5651 5653 5651 5649 5648 5647 5651 5652 5653 5653 5652 5651 5650 5649 5648 5646 5644
5691 5689 5687 5685 5681 5678 5675 5672 5671 5669 5667 5665 5663 5661 5660 5658 5657 5655 5653 5650 5647 5645 5647 5645 5642 5640 5638 5639 5642 5644 5644 5644 5643 5643 5642 5641 5639 5638
5682 5681 5680 5677 5674 5671 5667 5665 5663 5661 5658 5655 5653 5651 5650 5649 5648 5647 5646 5644 5643 5641 5640 5639 5636 5634 5631 5630 5631 5634 5635 5636 5636 5635 5635 5634 5631 5630
5674 5673 5671 5669 5666 5662 5660 5658 5655 5651 5649 5646 5644 5643 5642 5641 5640 5639 5637 5636 5635 5634 5633 5632 5630 5628 5626 5624 5624 5624 5625 5627 5628 5627 5626 5625 5624 5623
5665 5663 5661 5660 5657 5654 5652 5649 5646 5643 5640 5638 5637 5636 5634 5632 5630 5629 5627 5625 5624 5623 5625 5625 5624 5621 5618 5617 5616 5616 5617 5617 5619 5618 5618 5616 5616 5615
5656 5653 5650 5648 5647 5645 5643 5641 5638 5636 5633 5631 5629 5626 5624 5622 5621 5619 5617 5615 5613 5612 5613 5615 5615 5614 5612 5610 5609 5609 5609 5609 5610 5609 5608 5606 5607 5607
5647 5644 5642 5640 5637 5636 5633 5631 5630 5628 5626 5623 5620 5618 5615 5613 5611 5610 5608 5606 5604 5603 5604 5605 5604 5603 5602 5602 5603 5601 5600 5600 5601 5600 5599 5597 5597 5599
5639 5636 5633 5631 5629 5627 5625 5623 5622 5620 5617 5614 5612 5609 5607 5605 5603 5601 5599 5597 5595 5594 5594 5594 5593 5592 5589 5589 5591 5593 5591 5591 5591 5590 5589 5588 5588 5591
5631 5628 5626 5623 5621 5619 5617 5615 5613 5610 5608 5605 5603 5601 5599 5597 5595 5593 5590 5589 5587 5585 5584 5584 5583 5582 5581 5580 5580 5582 5584 5583 5582 5580 5580 5580 5580 5582
5623 5621 5619 5616 5614 5612 5609 5607 5604 5601 5599 5596 5593 5592 5590 5588 5586 5584 5582 5581 5578 5576 5575 5575 5576 5576 5574 5573 5571 5571 5573 5575 5575 5573 5572 5570 5570 5570
5616 5614 5611 5609 5606 5604 5601 5598 5595 5592 5589 5586 5584 5582 5581 5578 5576 5575 5573 5572 5570 5568 5567 5567 5566 5565 5564 5563 5562 5562 5563 5565 5565 5566 5565 5565 5562 5562
5610 5607 5604 5601 5598 5595 5592 5589 5586 5583 5581 5578 5575 5573 5571 5569 5567 5566 5564 5563 5562 5561 5559 5557 5555 5555 5554 5553 5552 5552 5553 5554 5554 5554 5554 5556 5557 5558